Location: Moy Burn
(57.3833°N, 4.0667°W)
Time: 11:46:44
(UTC+00:00)

Cosmos 1378 - Pass Details

Date: 08 August 2020
Orbit: 491 x 502 km, 82.5° (Epoch: 22 September)

Event Time Altitude Azimuth Distance (km) Brightness Sun altitude
Rises 23:05:08 0° 349° (N) 2,615 8.6 -15.1°
Reaches altitude 10° 23:07:19 10° 355° (N) 1,724 7.1 -15.2°
Maximum altitude 23:11:00 50° 72° (ENE) 645 3.6 -15.4°
Enters shadow 23:12:41 28° 134° (SE) 970 4.1 -15.4°
